Theta_e
285 281 277 277 279 279 278 279 277 279 283 281 280 280 283 285 284 283 284 284 286 287 290 290 290 290 290 292 293 294 295 297 297 298 301 304 309 316 319 323 325 327 325 324
280 279 281 283 283 281 280 278 274 279 283 281 279 280 283 284 283 284 285 285 285 287 288 290 291 293 295 295 296 296 296 297 298 298 300 305 306 310 315 320 322 319 320 324
277 281 284 282 280 279 279 277 277 277 281 279 279 275 278 282 283 285 286 286 287 286 287 289 293 292 294 293 294 295 296 296 296 298 299 299 300 304 307 312 317 321 318 316
279 283 282 280 279 280 277 280 280 280 275 266 278 266 276 278 281 284 285 284 284 286 287 290 292 291 290 292 292 293 295 296 297 296 296 295 296 295 299 302 308 316 320 314
278 280 280 279 280 282 279 281 280 280 271 267 267 265 273 277 279 281 283 284 285 285 287 288 290 290 291 292 292 293 294 295 296 295 294 295 295 297 299 300 303 312 317 319
278 283 282 281 282 282 283 280 277 277 269 262 268 269 272 274 277 279 282 284 285 286 287 288 290 290 291 292 293 294 294 295 294 294 295 295 295 296 297 298 300 304 310 315
279 281 282 283 279 282 280 274 264 264 261 266 273 265 274 278 279 279 281 282 284 285 285 287 288 289 290 290 292 293 293 292 292 294 295 295 296 296 296 297 298 300 307 310
272 272 280 283 279 278 277 275 265 260 263 265 273 267 275 280 282 282 283 283 283 285 286 286 287 288 288 289 290 291 292 291 292 294 294 295 295 296 296 296 297 299 302 309
273 274 281 281 281 279 277 274 277 264 259 262 266 272 277 281 281 280 281 281 282 283 284 286 287 288 288 289 290 291 291 291 292 293 293 293 294 294 294 295 296 298 301 307
277 272 278 280 281 281 279 281 271 266 260 259 265 265 273 277 278 279 279 280 282 284 285 286 286 287 288 290 290 290 291 292 293 292 292 293 293 294 294 295 296 296 298 300
278 275 274 279 277 275 276 275 276 273 269 263 262 270 275 277 278 278 279 281 282 283 284 285 286 288 289 290 290 290 291 291 291 291 291 291 291 292 294 294 295 295 297 298
281 275 268 273 276 278 278 276 276 267 265 269 268 271 280 279 279 279 281 282 283 284 285 285 286 288 288 288 289 288 288 289 289 290 290 290 291 292 292 294 295 295 295 299
281 270 263 270 274 278 276 278 279 275 273 268 264 271 279 279 282 283 280 282 283 284 284 285 286 287 287 288 288 287 287 288 289 289 289 290 290 291 292 293 295 295 295 298
283 272 271 271 272 275 274 276 278 276 266 272 273 275 280 281 280 280 281 282 283 283 283 285 286 286 288 287 286 286 287 288 288 289 289 289 289 291 292 293 295 295 296 299
279 268 271 271 273 274 275 275 275 275 276 270 275 274 277 279 279 280 281 282 281 281 283 285 285 286 286 285 286 286 286 287 288 287 288 290 292 292 292 293 295 295 296 299
278 266 268 266 270 271 271 274 275 275 275 275 275 274 280 281 281 279 280 281 279 281 283 284 285 285 285 285 285 285 285 286 287 287 290 292 294 295 294 294 294 295 296 296
278 270 263 264 267 265 267 270 274 274 274 274 271 276 277 276 277 279 278 280 279 281 283 284 284 284 284 284 285 284 284 286 286 286 288 289 290 291 292 292 291 289 290 291
273 271 269 261 261 262 276 273 273 274 275 276 276 276 277 278 278 280 281 278 280 283 284 284 284 284 284 284 284 284 285 285 285 285 285 286 286 286 288 289 288 287 288 287
278 274 267 263 254 269 276 273 272 271 273 276 276 278 278 278 277 277 281 279 281 284 285 285 285 285 284 284 284 284 283 283 283 284 284 285 285 285 285 285 286 286 286 286
278 276 271 258 258 261 272 277 277 276 269 276 276 277 276 277 273 275 279 280 282 285 285 285 285 285 284 284 285 284 283 283 282 283 284 285 285 285 285 285 285 286 286 286
272 271 269 257 261 266 275 278 277 268 274 276 277 278 278 276 277 279 280 280 284 285 285 286 285 284 284 285 284 283 283 282 284 284 284 284 285 284 285 285 285 285 285 285
272 271 270 265 261 264 276 277 274 278 279 280 279 279 279 279 279 279 279 280 283 284 285 285 285 285 285 285 284 283 283 284 284 284 284 284 284 284 285 285 285 285 285 285
270 274 271 272 272 278 278 278 282 280 280 280 280 280 279 279 278 278 279 280 281 283 284 285 285 285 285 285 284 283 283 284 284 284 284 284 284 285 285 285 285 285 285 285
272 276 271 272 277 278 278 280 280 279 279 280 280 279 278 278 278 279 280 280 281 282 282 283 284 284 285 285 284 284 284 285 285 284 284 285 285 285 285 285 285 285 285 284
274 275 272 272 277 279 280 279 281 280 281 280 279 279 278 278 279 279 279 280 280 281 281 282 282 282 282 282 284 284 285 286 284 284 284 284 284 284 283 283 284 283 284 286
275 274 273 275 280 282 283 280 281 279 279 279 278 277 278 278 279 279 279 279 279 279 279 280 281 280 279 277 277 278 280 285 286 284 283 283 283 283 283 282 282 287 286 286
Wind_Speed
3 5 1 4 2 3 1 4 7 6 5 6 8 15 24 21 9 11 11 9 9 9 10 9 8 8 8 6 6 4 5 7 3 2 2 2 4 3 5 7 13 15 18 23
5 1 4 4 3 2 4 5 7 6 2 5 10 23 24 16 7 7 7 9 9 6 9 10 8 5 3 3 3 6 6 5 4 3 3 2 3 4 4 6 10 9 10 19
3 1 5 3 1 3 4 5 2 5 7 2 11 11 7 5 4 6 8 8 5 7 8 9 6 3 3 5 6 6 8 7 3 5 3 3 3 3 4 5 5 8 11 9
3 2 5 3 4 5 4 4 1 5 7 2 7 11 9 1 10 7 9 7 6 8 5 7 7 7 7 9 7 8 8 8 7 6 4 6 9 12 11 8 6 8 11 11
1 5 4 4 4 5 4 1 3 1 3 5 6 4 12 3 8 10 8 7 8 7 9 10 10 8 9 8 9 9 9 9 10 8 8 9 12 11 10 10 11 12 9 12
5 2 4 4 2 1 2 3 5 4 4 3 5 6 8 5 7 4 4 6 8 10 11 9 10 9 12 12 12 12 13 16 10 10 11 13 17 14 12 13 11 11 10 8
2 4 2 2 2 2 3 6 7 9 6 8 5 2 16 9 8 6 8 11 11 11 9 10 12 15 17 16 15 14 14 17 11 12 14 16 19 18 18 16 12 12 10 8
3 6 6 3 4 6 3 6 7 6 4 8 2 10 10 8 6 7 9 9 9 11 10 13 17 18 18 18 18 16 16 18 14 14 16 17 18 14 14 15 13 12 12 12
4 5 2 2 2 4 4 3 3 4 1 3 5 9 13 14 9 6 8 5 11 11 12 19 20 18 18 17 18 18 19 16 16 16 17 19 18 19 17 17 15 12 14 8
3 3 1 1 2 4 3 7 5 4 4 8 8 8 13 6 7 8 7 9 14 17 17 18 17 16 14 15 16 15 15 22 22 21 20 17 19 19 18 17 17 17 13 7
4 4 2 1 6 8 4 3 3 4 5 5 6 11 10 9 7 9 8 11 17 19 19 18 17 15 15 14 17 18 18 19 19 18 20 21 17 18 18 17 16 17 12 16
6 5 4 9 1 1 4 6 7 6 6 5 3 18 4 7 6 3 14 19 20 19 20 18 16 18 17 17 17 19 18 18 16 17 18 19 18 18 19 18 18 16 17 15
7 2 3 8 5 2 4 6 5 3 3 11 5 16 3 2 14 21 17 18 20 19 20 19 18 18 18 18 18 17 17 18 17 17 18 18 19 19 19 19 18 16 15 17
7 4 8 8 6 4 5 6 10 10 4 10 18 34 31 25 24 24 21 19 20 19 20 18 19 19 17 17 18 17 17 16 17 17 17 19 20 20 19 18 17 17 15 15
4 6 3 4 5 5 11 12 13 18 23 12 35 18 29 27 28 24 21 20 18 20 19 19 20 19 17 17 16 16 17 16 15 16 16 18 19 19 18 16 16 15 15 13
2 4 3 6 4 4 12 16 21 24 24 24 30 37 27 30 24 16 16 16 18 19 21 22 20 20 18 18 17 16 16 16 14 14 12 10 6 11 14 15 11 12 13 15
6 5 3 8 4 9 11 15 21 8 8 12 16 19 8 9 10 13 11 18 15 19 20 21 20 18 17 17 15 16 16 15 12 10 8 9 7 7 9 14 14 12 13 14
6 6 2 5 5 6 5 2 3 12 10 19 13 12 12 12 9 14 13 6 15 16 18 18 17 16 16 15 14 14 12 11 10 8 8 9 9 10 9 11 13 12 12 14
4 5 3 3 4 13 10 4 8 9 11 18 22 20 15 9 8 8 4 4 11 11 15 15 15 14 12 14 14 12 11 10 10 9 7 8 8 10 10 11 13 12 12 12
6 2 4 4 4 10 6 3 5 5 8 8 12 12 8 2 5 5 5 7 10 11 13 15 15 12 12 14 12 11 11 10 10 8 7 7 9 10 12 11 12 11 12 13
7 3 12 3 5 14 14 6 4 5 9 6 9 9 7 5 7 7 8 7 6 7 14 14 12 11 12 12 11 11 11 11 10 9 9 11 11 12 12 12 11 12 14 14
13 12 7 5 3 17 11 5 10 8 1 5 6 7 6 7 7 7 7 7 7 9 12 15 12 10 11 11 10 10 11 10 9 9 11 12 11 9 10 13 12 13 14 15
6 11 11 16 14 2 12 5 12 2 3 4 4 6 5 7 6 7 5 5 5 5 8 10 11 11 10 11 10 10 11 10 9 10 12 12 12 10 11 13 13 11 12 12
7 6 5 3 10 22 12 14 11 5 10 5 6 6 5 9 7 7 5 3 3 3 6 7 9 10 12 12 11 10 10 10 10 11 11 10 11 11 11 9 9 10 9 9
7 13 7 9 11 13 18 16 18 12 13 11 7 7 8 7 8 6 3 4 2 2 3 5 6 6 9 10 11 11 9 9 10 10 10 10 10 11 11 10 8 9 9 8
8 10 10 11 13 14 14 8 13 14 13 13 9 6 6 8 8 5 4 4 3 2 1 3 5 5 6 7 7 9 10 7 8 9 8 8 8 8 8 9 11 22 17 18
Wind_Direction
16 63 170 159 118 119 188 246 248 261 275 317 266 281 287 294 280 273 268 262 267 272 276 284 295 306 304 290 319 345 312 308 312 304 258 249 235 235 242 231 237 252 207 202
32 197 177 134 134 174 233 257 272 286 298 319 301 293 279 281 251 217 248 280 278 300 305 302 325 7 10 304 305 326 307 278 266 248 271 283 286 275 230 233 239 227 236 226
154 128 130 128 219 243 227 207 250 237 328 310 324 309 317 325 278 256 258 244 272 261 279 299 285 237 267 284 272 275 284 293 255 234 266 283 294 276 262 248 230 222 221 211
229 142 166 176 235 165 279 174 300 313 20 291 58 285 295 277 290 263 275 287 280 290 286 259 258 274 263 261 243 244 247 263 276 255 250 242 266 272 260 253 248 240 211 212
305 168 188 216 227 184 233 344 292 266 100 40 327 77 268 313 278 272 265 253 292 304 251 258 258 267 273 270 254 250 249 249 247 256 256 268 266 258 265 253 245 243 225 218
245 302 192 209 149 234 335 340 59 55 84 356 220 140 265 230 213 243 268 318 293 285 262 265 268 281 270 260 259 255 253 252 239 248 256 258 261 260 256 256 247 238 231 216
239 200 184 162 123 38 74 45 339 345 3 229 162 53 248 257 247 241 272 287 296 286 274 278 277 281 285 278 264 258 255 256 240 245 255 257 258 255 250 250 253 248 232 210
128 312 183 183 203 162 90 117 151 258 279 281 316 236 248 216 257 247 258 261 279 278 282 284 284 285 277 280 280 274 266 260 255 252 259 260 254 254 251 245 245 247 240 222
127 283 88 216 176 131 136 129 128 91 158 351 243 281 284 269 261 218 267 306 285 280 275 281 282 280 284 285 286 286 280 272 278 271 272 264 256 251 250 248 244 245 240 229
174 323 33 84 92 46 117 146 71 13 307 290 276 270 239 253 245 277 285 294 293 290 286 288 288 290 290 290 294 285 280 281 277 275 273 267 262 257 252 248 239 234 238 241
129 118 279 37 202 174 135 165 113 126 166 213 298 270 215 223 218 254 275 288 297 295 298 298 297 293 291 296 296 292 287 284 282 278 274 269 261 255 254 247 239 238 234 228
186 145 231 221 61 99 150 181 152 146 236 239 216 270 188 210 197 256 309 308 304 299 302 302 298 298 308 308 305 297 292 286 280 274 270 264 258 249 246 241 233 224 227 227
184 247 359 339 1 36 210 185 178 117 96 215 162 264 202 238 305 312 305 306 301 302 304 306 301 316 314 308 300 297 293 286 280 272 266 260 253 246 239 235 230 216 216 234
123 172 187 197 193 136 205 194 203 192 180 262 225 274 279 294 299 306 307 301 301 302 310 302 314 317 309 303 302 299 295 290 287 278 270 262 252 241 233 224 215 208 204 218
142 216 194 274 236 220 241 240 221 215 228 233 272 251 279 291 295 299 300 298 305 310 307 316 322 315 310 310 308 302 302 296 291 283 277 267 248 235 223 209 201 193 200 184
186 262 91 285 298 276 265 248 243 238 245 254 262 277 267 273 283 288 291 307 312 309 316 324 321 319 320 318 313 312 306 305 301 297 296 307 271 242 184 178 169 169 164 157
170 148 90 268 332 321 291 229 227 183 204 216 228 246 266 270 281 283 294 313 305 312 322 324 323 322 324 321 318 313 313 311 312 310 331 355 4 63 128 135 122 125 129 135
159 129 137 264 359 269 264 212 192 199 234 213 252 264 260 268 277 285 295 281 308 316 323 323 320 326 328 325 324 318 318 325 331 337 7 26 37 58 85 115 114 113 120 122
167 136 148 207 208 306 290 168 170 172 267 210 224 251 262 290 314 289 171 300 291 322 324 319 319 326 328 328 330 328 340 348 353 3 23 48 58 78 83 95 107 110 109 110
188 17 171 118 189 239 236 175 139 164 286 194 190 230 243 42 328 272 328 328 311 351 325 322 326 334 337 337 338 344 353 0 7 12 32 53 77 81 91 99 99 103 103 105
173 169 212 194 248 281 244 183 179 94 242 174 184 214 180 197 211 281 321 310 304 349 329 329 334 342 340 342 344 357 357 9 4 22 39 51 63 79 85 92 94 102 104 104
174 170 189 147 196 275 157 82 194 210 202 174 194 210 213 244 281 282 292 308 347 350 337 335 339 348 347 352 353 2 12 6 16 39 56 60 63 70 84 93 94 96 101 101
217 191 181 190 208 240 201 220 229 91 189 205 194 217 225 257 262 273 272 320 3 351 328 335 338 349 358 1 5 13 9 13 30 48 56 63 67 69 81 91 93 93 99 94
246 174 219 116 229 242 236 257 257 227 235 230 232 233 214 252 254 257 263 287 30 358 329 331 337 356 11 4 6 17 17 19 31 47 53 64 68 68 63 62 71 85 97 109
184 154 180 257 286 290 265 235 241 234 238 252 230 224 236 225 244 224 231 244 118 313 328 331 333 353 358 352 9 7 14 25 35 40 45 53 61 67 68 62 67 72 57 82
179 174 192 226 215 224 256 239 213 212 218 226 213 230 221 210 224 194 219 228 151 198 338 322 321 343 348 350 359 2 358 13 55 60 54 53 62 63 66 72 70 55 75 87